EZY96R EGKK-LEAL

Flight info

Callsign EZY96R
Flight time 2h 16m
Altitude 35000
Route SFD Y47 BENBO UY47 DRAKE L151 SITET UN859 SOPIL DCT BALAN DCT LMG DCT PIMQO/N0455F370 DCT AGN DCT ANETO DCT POSSY DCT XIMPE DCT RIMES N860 VLC
Aircraft A320/M-SDE3FGHIRWY/LB1

Departure

Time 2026-05-04 21:44
Airport London Gatwick Airport (EGKK)

Arrival

Time 2026-05-05 00:00
Airport Alicante-Elche Miguel Hernández Airport (LEAL)
Time Latitude Longitude Altitude Speed Heading
2026-05-04 21:02 51.15878 -0.17253 205 ft 0 kts 348°
2026-05-04 21:23 51.15875 -0.17252 205 ft 3 kts 348°
2026-05-04 21:24 51.15849 -0.17243 216 ft 4 kts 347°
2026-05-04 21:24 51.15827 -0.17235 208 ft 4 kts 342°
2026-05-04 21:24 51.15808 -0.17216 216 ft 4 kts 287°
2026-05-04 21:24 51.15808 -0.17176 213 ft 3 kts 257°
2026-05-04 21:25 51.15806 -0.17188 211 ft 0 kts 257°
2026-05-04 21:28 51.15801 -0.17221 216 ft 7 kts 257°
2026-05-04 21:29 51.15787 -0.17318 209 ft 11 kts 256°
2026-05-04 21:29 51.15768 -0.17447 209 ft 13 kts 259°
2026-05-04 21:29 51.15746 -0.17612 215 ft 18 kts 257°
2026-05-04 21:29 51.15719 -0.17804 210 ft 19 kts 258°
2026-05-04 21:30 51.15686 -0.18038 210 ft 24 kts 258°
2026-05-04 21:30 51.15647 -0.18326 211 ft 29 kts 256°
2026-05-04 21:30 51.15608 -0.18625 205 ft 25 kts 271°
2026-05-04 21:30 51.15561 -0.18821 213 ft 18 kts 199°
2026-05-04 21:31 51.15265 -0.18732 217 ft 25 kts 166°
2026-05-04 21:31 51.15132 -0.18721 209 ft 16 kts 228°
2026-05-04 21:31 51.15106 -0.18907 207 ft 20 kts 259°
2026-05-04 21:32 51.15074 -0.19146 207 ft 24 kts 258°
2026-05-04 21:32 51.15033 -0.19436 207 ft 29 kts 257°
2026-05-04 21:32 51.14985 -0.19769 216 ft 33 kts 258°
2026-05-04 21:32 51.14932 -0.20154 208 ft 35 kts 257°
2026-05-04 21:33 51.14891 -0.20456 208 ft 29 kts 258°
2026-05-04 21:33 51.14845 -0.20793 206 ft 33 kts 258°
2026-05-04 21:33 51.14792 -0.21142 217 ft 29 kts 254°
2026-05-04 21:33 51.14753 -0.21373 213 ft 14 kts 240°
2026-05-04 21:34 51.14658 -0.21360 215 ft 15 kts 144°
2026-05-04 21:34 51.14619 -0.21329 208 ft 0 kts 166°
2026-05-04 21:41 51.14609 -0.21325 216 ft 6 kts 166°
2026-05-04 21:42 51.14594 -0.21319 215 ft 5 kts 164°
2026-05-04 21:42 51.14536 -0.21257 210 ft 15 kts 130°
2026-05-04 21:42 51.14535 -0.21072 207 ft 18 kts 78°
2026-05-04 21:42 51.14540 -0.21030 216 ft 0 kts 77°
2026-05-04 21:43 51.14545 -0.20997 212 ft 14 kts 76°
2026-05-04 21:43 51.14603 -0.20584 209 ft 71 kts 79°
2026-05-04 21:43 51.14752 -0.19488 215 ft 128 kts 78°
2026-05-04 21:43 51.14971 -0.17884 356 ft 161 kts 79°
2026-05-04 21:44 51.15191 -0.16048 831 ft 176 kts 79°
2026-05-04 21:44 51.15427 -0.14063 1424 ft 189 kts 78°
2026-05-04 21:44 51.15670 -0.11951 2053 ft 198 kts 79°
2026-05-04 21:44 51.15897 -0.09751 2646 ft 210 kts 83°
2026-05-04 21:45 51.15922 -0.07461 3555 ft 204 kts 95°
2026-05-04 21:45 51.15627 -0.05233 4262 ft 212 kts 110°
2026-05-04 21:45 51.14706 -0.03373 4822 ft 228 kts 148°
2026-05-04 21:45 51.13111 -0.02630 5178 ft 254 kts 173°
2026-05-04 21:46 51.11280 -0.02515 5696 ft 271 kts 178°
2026-05-04 21:46 51.09361 -0.02447 5966 ft 276 kts 178°
2026-05-04 21:46 51.07476 -0.02382 6006 ft 275 kts 177°
2026-05-04 21:46 51.05582 -0.01984 6011 ft 275 kts 166°
2026-05-04 21:47 51.03738 -0.01202 6014 ft 274 kts 162°
2026-05-04 21:47 51.01919 -0.00272 6015 ft 275 kts 161°
2026-05-04 21:47 51.00102 0.00689 6022 ft 276 kts 161°
2026-05-04 21:47 50.98275 0.01638 6025 ft 276 kts 161°
2026-05-04 21:48 50.96443 0.02560 6018 ft 275 kts 162°
2026-05-04 21:48 50.94637 0.03447 6017 ft 275 kts 162°
2026-05-04 21:48 50.92807 0.04330 6020 ft 275 kts 162°
2026-05-04 21:48 50.91568 0.04919 6020 ft 275 kts 163°
2026-05-04 21:49 50.89130 0.06069 6017 ft 276 kts 163°
2026-05-04 21:49 50.87293 0.06933 6015 ft 275 kts 163°
2026-05-04 21:49 50.85461 0.07794 6017 ft 274 kts 163°
2026-05-04 21:49 50.83632 0.08651 6017 ft 274 kts 163°
2026-05-04 21:50 50.81802 0.09507 6018 ft 274 kts 163°
2026-05-04 21:50 50.79977 0.10364 6017 ft 274 kts 163°
2026-05-04 21:50 50.78149 0.11219 6019 ft 274 kts 162°
2026-05-04 21:50 50.76276 0.11792 6016 ft 275 kts 176°
2026-05-04 21:51 50.74351 0.11559 6303 ft 282 kts 192°
2026-05-04 21:51 50.72456 0.10834 7254 ft 280 kts 192°
2026-05-04 21:51 50.70549 0.10140 8153 ft 282 kts 192°
2026-05-04 21:51 50.68632 0.09454 9015 ft 284 kts 192°
2026-05-04 21:52 50.66694 0.08763 9877 ft 287 kts 192°
2026-05-04 21:52 50.64727 0.08060 10455 ft 299 kts 192°
2026-05-04 21:52 50.63351 0.07568 10617 ft 314 kts 191°
2026-05-04 21:52 50.61141 0.06779 10820 ft 337 kts 192°
2026-05-04 21:53 50.58789 0.05935 11119 ft 354 kts 191°
2026-05-04 21:53 50.56365 0.05065 11716 ft 360 kts 191°
2026-05-04 21:53 50.53907 0.04181 12392 ft 364 kts 191°
2026-05-04 21:53 50.51418 0.03288 13071 ft 369 kts 191°
2026-05-04 21:54 50.48900 0.02387 13742 ft 373 kts 191°
2026-05-04 21:54 50.46355 0.01475 14343 ft 377 kts 191°
2026-05-04 21:54 50.43789 0.00555 14957 ft 380 kts 192°
2026-05-04 21:54 50.41206 -0.00372 15583 ft 382 kts 191°
2026-05-04 21:55 50.38611 -0.01304 16228 ft 383 kts 191°
2026-05-04 21:55 50.35999 -0.02238 16813 ft 387 kts 191°
2026-05-04 21:55 50.33370 -0.03175 17388 ft 390 kts 191°
2026-05-04 21:55 50.30714 -0.04122 17956 ft 392 kts 191°
2026-05-04 21:56 50.28043 -0.05074 18485 ft 395 kts 191°
2026-05-04 21:56 50.25354 -0.06023 18994 ft 397 kts 189°
2026-05-04 21:56 50.22609 -0.06470 19491 ft 397 kts 179°
2026-05-04 21:56 50.19855 -0.06114 19986 ft 398 kts 169°
2026-05-04 21:57 50.17187 -0.04965 20518 ft 398 kts 159°
2026-05-04 21:57 50.14645 -0.03240 21016 ft 399 kts 156°
2026-05-04 21:57 50.12139 -0.01488 21491 ft 401 kts 156°
2026-05-04 21:57 50.09543 0.00143 21934 ft 403 kts 163°
2026-05-04 21:58 50.06824 0.01255 22401 ft 405 kts 166°
2026-05-04 21:58 50.04087 0.02325 22880 ft 406 kts 166°
2026-05-04 21:58 50.01331 0.03408 23237 ft 411 kts 166°
2026-05-04 21:58 49.98555 0.04503 23655 ft 413 kts 166°
2026-05-04 21:59 49.95758 0.05610 23961 ft 416 kts 165°
2026-05-04 21:59 49.92944 0.06718 24306 ft 418 kts 166°
2026-05-04 21:59 49.90120 0.07825 24698 ft 419 kts 166°
2026-05-04 21:59 49.87286 0.08936 25049 ft 421 kts 166°
2026-05-04 22:00 49.84446 0.10051 25417 ft 422 kts 166°
2026-05-04 22:00 49.81594 0.11174 25770 ft 424 kts 166°
2026-05-04 22:00 49.78732 0.12298 26119 ft 425 kts 166°
2026-05-04 22:00 49.75856 0.13417 26465 ft 426 kts 166°
2026-05-04 22:01 49.72973 0.14533 26796 ft 428 kts 166°
2026-05-04 22:01 49.70078 0.15653 27110 ft 430 kts 166°
2026-05-04 22:01 49.67176 0.16780 27424 ft 431 kts 166°
2026-05-04 22:01 49.64263 0.17938 27739 ft 432 kts 166°
2026-05-04 22:02 49.61352 0.19116 28058 ft 433 kts 166°
2026-05-04 22:02 49.58433 0.20303 28371 ft 435 kts 166°
2026-05-04 22:02 49.55506 0.21490 28673 ft 436 kts 166°
2026-05-04 22:02 49.52571 0.22678 29072 ft 435 kts 166°
2026-05-04 22:03 49.49661 0.23849 29593 ft 431 kts 166°
2026-05-04 22:03 49.46775 0.25001 30115 ft 427 kts 166°
2026-05-04 22:03 49.43906 0.26145 30526 ft 424 kts 166°
2026-05-04 22:03 49.41058 0.27284 30933 ft 421 kts 167°
2026-05-04 22:04 49.38233 0.28416 31338 ft 419 kts 167°
2026-05-04 22:04 49.35424 0.29541 31742 ft 416 kts 167°
2026-05-04 22:04 49.32633 0.30656 32148 ft 413 kts 167°
2026-05-04 22:04 49.29862 0.31765 32553 ft 411 kts 167°
2026-05-04 22:05 49.27112 0.32900 33007 ft 407 kts 167°
2026-05-04 22:05 49.24392 0.34051 33435 ft 404 kts 167°
2026-05-04 22:05 49.21692 0.35207 33830 ft 402 kts 167°
2026-05-04 22:05 49.18712 0.36485 34201 ft 400 kts 167°
2026-05-04 22:06 49.16329 0.37500 34401 ft 400 kts 167°
2026-05-04 22:06 49.13636 0.38635 34584 ft 402 kts 167°
2026-05-04 22:06 49.10928 0.39764 34760 ft 404 kts 167°
2026-05-04 22:06 49.08213 0.40894 34926 ft 406 kts 167°
2026-05-04 22:07 49.05481 0.42032 34974 ft 407 kts 167°
2026-05-04 22:07 49.00053 0.44297 34965 ft 408 kts 167°
2026-05-04 22:08 48.94570 0.46588 34986 ft 408 kts 167°
2026-05-04 22:08 48.89094 0.48876 34983 ft 408 kts 167°
2026-05-04 22:09 48.83612 0.51153 34981 ft 408 kts 167°
2026-05-04 22:09 48.78125 0.53411 34978 ft 408 kts 168°
2026-05-04 22:10 48.72629 0.55593 34977 ft 408 kts 168°
2026-05-04 22:10 48.67126 0.57721 34978 ft 408 kts 168°
2026-05-04 22:11 48.61623 0.59850 34972 ft 408 kts 168°
2026-05-04 22:11 48.56130 0.61992 34969 ft 408 kts 168°
2026-05-04 22:12 48.50639 0.64143 34968 ft 408 kts 168°
2026-05-04 22:12 48.45158 0.66371 34968 ft 408 kts 167°
2026-05-04 22:13 48.39690 0.68618 34969 ft 407 kts 167°
2026-05-04 22:13 48.34229 0.70837 34959 ft 406 kts 167°
2026-05-04 22:14 48.28771 0.73041 34961 ft 406 kts 167°
2026-05-04 22:14 48.23312 0.75242 34962 ft 406 kts 168°
2026-05-04 22:15 48.17890 0.77389 34958 ft 405 kts 168°
2026-05-04 22:15 48.12438 0.79515 34955 ft 405 kts 168°
2026-05-04 22:16 48.06987 0.81643 34956 ft 405 kts 168°
2026-05-04 22:16 48.01536 0.83773 34957 ft 405 kts 168°
2026-05-04 22:17 47.96086 0.85908 34946 ft 406 kts 168°
2026-05-04 22:17 47.90620 0.88039 34949 ft 406 kts 168°
2026-05-04 22:18 47.85145 0.90157 34948 ft 406 kts 168°
2026-05-04 22:18 47.79676 0.92278 34939 ft 406 kts 168°
2026-05-04 22:19 47.74223 0.94397 34940 ft 404 kts 168°
2026-05-04 22:19 47.68791 0.96499 34939 ft 403 kts 168°
2026-05-04 22:20 47.63357 0.98590 34942 ft 403 kts 168°
2026-05-04 22:20 47.57921 1.00679 34938 ft 403 kts 168°
2026-05-04 22:21 47.52506 1.02764 34934 ft 401 kts 168°
2026-05-04 22:21 47.47104 1.04832 34935 ft 401 kts 168°
2026-05-04 22:22 47.41653 1.06378 34935 ft 397 kts 179°
2026-05-04 22:22 47.36131 1.06291 34928 ft 397 kts 182°
2026-05-04 22:23 47.30610 1.06158 34932 ft 396 kts 182°
2026-05-04 22:23 47.25096 1.06025 34928 ft 396 kts 182°
2026-05-04 22:24 47.19581 1.05891 34930 ft 396 kts 182°
2026-05-04 22:24 47.14056 1.05767 34929 ft 398 kts 181°
2026-05-04 22:25 47.08506 1.05641 34929 ft 399 kts 181°
2026-05-04 22:25 47.02954 1.05505 34930 ft 399 kts 181°
2026-05-04 22:26 46.97406 1.05317 34926 ft 399 kts 182°
2026-05-04 22:26 46.91851 1.05050 34927 ft 399 kts 182°
2026-05-04 22:27 46.86297 1.04791 34924 ft 399 kts 182°
2026-05-04 22:27 46.80737 1.04553 34924 ft 400 kts 182°
2026-05-04 22:28 46.75179 1.04326 34926 ft 400 kts 182°
2026-05-04 22:28 46.69616 1.04089 34927 ft 400 kts 182°
2026-05-04 22:29 46.64062 1.03850 34919 ft 400 kts 182°
2026-05-04 22:29 46.58496 1.03614 34922 ft 400 kts 182°
2026-05-04 22:30 46.52921 1.03379 34927 ft 402 kts 182°
2026-05-04 22:30 46.47328 1.03209 34931 ft 402 kts 181°
2026-05-04 22:31 46.41715 1.03178 34932 ft 403 kts 181°
2026-05-04 22:31 46.36107 1.03167 34929 ft 403 kts 181°
2026-05-04 22:32 46.30498 1.03113 34934 ft 403 kts 181°
2026-05-04 22:32 46.24888 1.03037 34935 ft 403 kts 181°
2026-05-04 22:33 46.19276 1.02964 34937 ft 403 kts 181°
2026-05-04 22:33 46.13663 1.02910 34938 ft 403 kts 181°
2026-05-04 22:34 46.09001 1.02859 34938 ft 403 kts 181°
2026-05-04 22:34 46.03382 1.02781 34945 ft 403 kts 181°
2026-05-04 22:35 45.97767 1.02715 34945 ft 404 kts 181°
2026-05-04 22:35 45.92146 1.02664 34948 ft 405 kts 181°
2026-05-04 22:36 45.86510 1.02611 34946 ft 405 kts 181°
2026-05-04 22:36 45.80879 1.02763 34946 ft 406 kts 174°
2026-05-04 22:37 45.75298 1.04164 34950 ft 408 kts 172°
2026-05-04 22:37 45.69709 1.05612 34945 ft 408 kts 172°
2026-05-04 22:38 45.64115 1.07054 34948 ft 408 kts 172°
2026-05-04 22:38 45.58524 1.08482 34949 ft 408 kts 172°
2026-05-04 22:39 45.52920 1.09924 34954 ft 410 kts 172°
2026-05-04 22:39 45.47299 1.11360 34948 ft 410 kts 172°
2026-05-04 22:40 45.41678 1.12783 34951 ft 410 kts 172°
2026-05-04 22:40 45.38863 1.13495 35074 ft 411 kts 172°
2026-05-04 22:40 45.36044 1.14209 35324 ft 412 kts 172°
2026-05-04 22:40 45.33217 1.14928 35522 ft 413 kts 172°
2026-05-04 22:41 45.30387 1.15652 35719 ft 414 kts 172°
2026-05-04 22:41 45.27548 1.16375 35909 ft 414 kts 172°
2026-05-04 22:41 45.24707 1.17097 36121 ft 414 kts 172°
2026-05-04 22:41 45.21866 1.17817 36309 ft 415 kts 172°
2026-05-04 22:42 45.19019 1.18534 36481 ft 416 kts 173°
2026-05-04 22:42 45.16147 1.18932 36621 ft 414 kts 182°
2026-05-04 22:42 45.13283 1.18645 36778 ft 413 kts 191°
2026-05-04 22:42 45.10455 1.17909 36930 ft 414 kts 192°
2026-05-04 22:43 45.07611 1.17163 36956 ft 417 kts 192°
2026-05-04 22:43 45.01898 1.15695 36956 ft 417 kts 192°
2026-05-04 22:44 44.96171 1.14240 36977 ft 420 kts 192°
2026-05-04 22:44 44.90416 1.12773 36970 ft 420 kts 192°
2026-05-04 22:45 44.84658 1.11305 36971 ft 421 kts 192°
2026-05-04 22:45 44.76016 1.09114 36982 ft 421 kts 192°
2026-05-04 22:46 44.70253 1.07650 36978 ft 421 kts 192°
2026-05-04 22:46 44.64530 1.06193 36976 ft 421 kts 192°
2026-05-04 22:47 44.58768 1.04731 36970 ft 421 kts 192°
2026-05-04 22:47 44.53008 1.03282 36969 ft 421 kts 192°
2026-05-04 22:48 44.47246 1.01835 36970 ft 421 kts 192°
2026-05-04 22:48 44.41482 1.00378 36965 ft 421 kts 192°
2026-05-04 22:49 44.35724 0.98937 36960 ft 421 kts 192°
2026-05-04 22:49 44.29961 0.97505 36973 ft 421 kts 192°
2026-05-04 22:50 44.24194 0.96064 36973 ft 421 kts 192°
2026-05-04 22:50 44.18430 0.94618 36971 ft 421 kts 192°
2026-05-04 22:51 44.12654 0.93178 36984 ft 421 kts 192°
2026-05-04 22:51 44.06880 0.91749 36989 ft 422 kts 192°
2026-05-04 22:52 44.01097 0.90323 36982 ft 422 kts 192°
2026-05-04 22:52 43.95313 0.88888 36990 ft 422 kts 192°
2026-05-04 22:53 43.89525 0.87456 37000 ft 423 kts 192°
2026-05-04 22:53 43.83738 0.85971 37008 ft 423 kts 193°
2026-05-04 22:54 43.77956 0.84400 37001 ft 423 kts 193°
2026-05-04 22:54 43.72174 0.82826 37011 ft 423 kts 193°
2026-05-04 22:55 43.66385 0.81275 37021 ft 424 kts 193°
2026-05-04 22:55 43.60587 0.79740 37014 ft 424 kts 193°
2026-05-04 22:56 43.54786 0.78206 37027 ft 425 kts 193°
2026-05-04 22:56 43.48983 0.76662 37035 ft 425 kts 193°
2026-05-04 22:57 43.43171 0.75124 37055 ft 425 kts 193°
2026-05-04 22:57 43.37354 0.73592 37045 ft 426 kts 193°
2026-05-04 22:58 43.31535 0.72059 37050 ft 426 kts 194°
2026-05-04 22:58 43.25717 0.70529 37051 ft 426 kts 194°
2026-05-04 22:59 43.19900 0.68999 37039 ft 426 kts 194°
2026-05-04 22:59 43.14078 0.67481 37041 ft 426 kts 194°
2026-05-04 23:00 43.08258 0.65958 37044 ft 426 kts 194°
2026-05-04 23:00 43.02443 0.64442 37048 ft 425 kts 194°
2026-05-04 23:01 42.96627 0.62929 37029 ft 425 kts 194°
2026-05-04 23:01 42.90813 0.61415 37023 ft 425 kts 194°
2026-05-04 23:02 42.84995 0.59907 37029 ft 426 kts 194°
2026-05-04 23:02 42.79192 0.58399 37031 ft 424 kts 194°
2026-05-04 23:03 42.73387 0.56898 37024 ft 425 kts 194°
2026-05-04 23:03 42.67722 0.54831 37015 ft 420 kts 207°
2026-05-04 23:04 42.62482 0.51478 37018 ft 419 kts 208°
2026-05-04 23:04 42.57216 0.48089 37001 ft 419 kts 208°
2026-05-04 23:05 42.51941 0.44713 37002 ft 419 kts 208°
2026-05-04 23:05 42.46665 0.41350 37003 ft 419 kts 208°
2026-05-04 23:06 42.41388 0.37995 37024 ft 419 kts 208°
2026-05-04 23:06 42.36103 0.34640 37005 ft 419 kts 208°
2026-05-04 23:07 42.30820 0.31296 37007 ft 419 kts 208°
2026-05-04 23:07 42.25540 0.27957 37009 ft 419 kts 208°
2026-05-04 23:08 42.20261 0.24623 37007 ft 419 kts 208°
2026-05-04 23:08 42.14994 0.21291 36989 ft 418 kts 208°
2026-05-04 23:09 42.09730 0.17978 36993 ft 417 kts 208°
2026-05-04 23:09 42.04225 0.15444 36995 ft 425 kts 193°
2026-05-04 23:10 41.98328 0.14537 36966 ft 426 kts 192°
2026-05-04 23:10 41.92433 0.13664 36970 ft 426 kts 191°
2026-05-04 23:11 41.86534 0.12789 36979 ft 427 kts 191°
2026-05-04 23:11 41.80633 0.11904 36982 ft 426 kts 192°
2026-05-04 23:12 41.74729 0.11019 36962 ft 427 kts 192°
2026-05-04 23:12 41.68826 0.10132 36977 ft 427 kts 192°
2026-05-04 23:13 41.62914 0.09267 36985 ft 427 kts 192°
2026-05-04 23:13 41.57002 0.08390 36992 ft 427 kts 192°
2026-05-04 23:14 41.52090 0.07646 36986 ft 427 kts 192°
2026-05-04 23:14 41.46183 0.06767 36990 ft 427 kts 192°
2026-05-04 23:15 41.40278 0.05906 36995 ft 426 kts 192°
2026-05-04 23:15 41.34379 0.05044 36964 ft 426 kts 193°
2026-05-04 23:16 41.28493 0.04183 36985 ft 425 kts 193°
2026-05-04 23:16 41.22609 0.03313 36985 ft 425 kts 193°
2026-05-04 23:17 41.16732 0.02449 36995 ft 425 kts 192°
2026-05-04 23:17 41.10894 0.01601 36981 ft 425 kts 193°
2026-05-04 23:18 41.05022 0.00747 37001 ft 424 kts 193°
2026-05-04 23:18 40.99153 -0.00115 37016 ft 424 kts 193°
2026-05-04 23:19 40.93284 -0.00973 37022 ft 424 kts 193°
2026-05-04 23:19 40.87414 -0.01828 36996 ft 424 kts 193°
2026-05-04 23:20 40.81546 -0.02676 37005 ft 424 kts 193°
2026-05-04 23:20 40.75685 -0.03524 37011 ft 424 kts 193°
2026-05-04 23:21 40.69819 -0.04376 37020 ft 424 kts 193°
2026-05-04 23:21 40.63955 -0.05226 37017 ft 424 kts 193°
2026-05-04 23:22 40.58092 -0.06069 37022 ft 424 kts 193°
2026-05-04 23:22 40.52430 -0.07723 37026 ft 414 kts 203°
2026-05-04 23:23 40.46907 -0.09920 36996 ft 414 kts 203°
2026-05-04 23:23 40.41386 -0.12101 37014 ft 415 kts 203°
2026-05-04 23:24 40.35866 -0.14285 37026 ft 414 kts 203°
2026-05-04 23:24 40.30344 -0.16472 37031 ft 414 kts 203°
2026-05-04 23:25 40.24828 -0.18645 36990 ft 414 kts 204°
2026-05-04 23:25 40.19293 -0.20814 37014 ft 414 kts 204°
2026-05-04 23:26 40.13773 -0.22982 37015 ft 414 kts 204°
2026-05-04 23:26 40.08249 -0.25151 37007 ft 414 kts 204°
2026-05-04 23:27 40.02729 -0.27310 36953 ft 414 kts 204°
2026-05-04 23:27 39.97212 -0.29462 36970 ft 414 kts 204°
2026-05-04 23:28 39.91696 -0.31618 36982 ft 414 kts 204°
2026-05-04 23:28 39.86182 -0.33767 36985 ft 414 kts 204°
2026-05-04 23:29 39.80669 -0.35907 36981 ft 413 kts 204°
2026-05-04 23:29 39.77914 -0.36979 36866 ft 414 kts 204°
2026-05-04 23:29 39.75157 -0.38053 36604 ft 413 kts 204°
2026-05-04 23:30 39.72405 -0.39121 36070 ft 413 kts 204°
2026-05-04 23:30 39.69649 -0.40184 35317 ft 414 kts 205°
2026-05-04 23:30 39.66881 -0.41251 34561 ft 416 kts 205°
2026-05-04 23:30 39.64092 -0.42329 33735 ft 419 kts 205°
2026-05-04 23:31 39.61288 -0.43412 32799 ft 422 kts 204°
2026-05-04 23:31 39.58469 -0.44497 31900 ft 424 kts 204°
2026-05-04 23:31 39.55632 -0.45589 30957 ft 426 kts 204°
2026-05-04 23:31 39.52786 -0.46688 29995 ft 430 kts 203°
2026-05-04 23:32 39.49818 -0.47491 28840 ft 442 kts 194°
2026-05-04 23:32 39.46702 -0.47626 27617 ft 456 kts 184°
2026-05-04 23:32 39.43554 -0.47055 26505 ft 467 kts 175°
2026-05-04 23:32 39.40400 -0.46227 25757 ft 460 kts 175°
2026-05-04 23:33 39.37275 -0.45424 24879 ft 456 kts 175°
2026-05-04 23:33 39.34174 -0.44643 24031 ft 452 kts 175°
2026-05-04 23:33 39.31107 -0.43881 23199 ft 447 kts 175°
2026-05-04 23:33 39.28071 -0.43125 22412 ft 441 kts 175°
2026-05-04 23:34 39.25079 -0.42377 21673 ft 435 kts 175°
2026-05-04 23:34 39.22121 -0.41638 20955 ft 430 kts 175°
2026-05-04 23:34 39.19202 -0.40908 20269 ft 425 kts 175°
2026-05-04 23:34 39.16312 -0.40185 19606 ft 421 kts 175°
2026-05-04 23:35 39.13455 -0.39471 18961 ft 416 kts 175°
2026-05-04 23:35 39.10630 -0.38762 18360 ft 411 kts 175°
2026-05-04 23:35 39.07836 -0.38061 17730 ft 406 kts 175°
2026-05-04 23:35 39.05088 -0.37372 17156 ft 399 kts 175°
2026-05-04 23:36 39.02378 -0.36695 16604 ft 394 kts 174°
2026-05-04 23:36 38.99706 -0.36027 16056 ft 388 kts 174°
2026-05-04 23:36 38.97065 -0.35365 15486 ft 385 kts 174°
2026-05-04 23:36 38.94443 -0.34714 14928 ft 382 kts 174°
2026-05-04 23:37 38.91835 -0.34069 14336 ft 381 kts 174°
2026-05-04 23:37 38.89241 -0.33430 13742 ft 379 kts 174°
2026-05-04 23:37 38.86657 -0.32797 13107 ft 376 kts 174°
2026-05-04 23:37 38.84101 -0.32168 12504 ft 372 kts 173°
2026-05-04 23:38 38.81567 -0.31543 11886 ft 370 kts 173°
2026-05-04 23:38 38.79048 -0.30918 11250 ft 368 kts 173°
2026-05-04 23:38 38.76555 -0.30295 10824 ft 360 kts 172°
2026-05-04 23:38 38.74148 -0.29688 10699 ft 344 kts 172°
2026-05-04 23:39 38.71852 -0.29111 10574 ft 329 kts 173°
2026-05-04 23:39 38.69657 -0.28563 10456 ft 314 kts 173°
2026-05-04 23:39 38.67551 -0.28041 10332 ft 302 kts 173°
2026-05-04 23:39 38.65528 -0.27540 10203 ft 291 kts 173°
2026-05-04 23:40 38.63560 -0.27059 10032 ft 285 kts 173°
2026-05-04 23:40 38.61617 -0.26587 9970 ft 284 kts 173°
2026-05-04 23:40 38.59670 -0.26115 9617 ft 288 kts 173°
2026-05-04 23:40 38.57694 -0.25633 9247 ft 287 kts 173°
2026-05-04 23:41 38.55774 -0.25158 8799 ft 282 kts 172°
2026-05-04 23:41 38.53850 -0.24680 8094 ft 281 kts 172°
2026-05-04 23:41 38.51929 -0.24206 7410 ft 280 kts 171°
2026-05-04 23:41 38.50076 -0.23748 7223 ft 260 kts 171°
2026-05-04 23:42 38.48345 -0.23320 6900 ft 249 kts 171°
2026-05-04 23:42 38.46679 -0.22911 6711 ft 242 kts 171°
2026-05-04 23:42 38.45007 -0.22723 6583 ft 241 kts 193°
2026-05-04 23:42 38.43450 -0.23476 6375 ft 240 kts 209°
2026-05-04 23:43 38.42001 -0.24529 6118 ft 241 kts 213°
2026-05-04 23:43 38.40587 -0.25663 5819 ft 239 kts 214°
2026-05-04 23:43 38.39186 -0.26798 5523 ft 238 kts 214°
2026-05-04 23:43 38.37786 -0.27916 5227 ft 237 kts 214°
2026-05-04 23:44 38.36382 -0.29015 4928 ft 236 kts 214°
2026-05-04 23:44 38.34979 -0.30095 4632 ft 235 kts 213°
2026-05-04 23:44 38.33576 -0.31164 4328 ft 234 kts 213°
2026-05-04 23:44 38.32181 -0.32221 4064 ft 232 kts 213°
2026-05-04 23:45 38.30791 -0.33271 3762 ft 232 kts 213°
2026-05-04 23:45 38.29412 -0.34327 3760 ft 235 kts 216°
2026-05-04 23:45 38.28106 -0.35711 3883 ft 241 kts 229°
2026-05-04 23:45 38.27133 -0.37288 3859 ft 213 kts 242°
2026-05-04 23:46 38.26556 -0.38922 3723 ft 197 kts 259°
2026-05-04 23:46 38.26597 -0.40568 3611 ft 182 kts 294°
2026-05-04 23:46 38.27149 -0.41932 3551 ft 165 kts 284°
2026-05-04 23:46 38.27030 -0.43298 3385 ft 152 kts 252°
2026-05-04 23:47 38.26678 -0.44540 3012 ft 149 kts 258°
2026-05-04 23:47 38.26650 -0.45850 2554 ft 149 kts 280°
2026-05-04 23:47 38.26894 -0.47169 1986 ft 157 kts 284°
2026-05-04 23:47 38.27089 -0.48573 1440 ft 162 kts 280°
2026-05-04 23:48 38.27343 -0.49966 960 ft 161 kts 285°
2026-05-04 23:48 38.27553 -0.51336 549 ft 156 kts 279°
2026-05-04 23:48 38.27734 -0.52661 251 ft 148 kts 281°
2026-05-04 23:48 38.27923 -0.53931 277 ft 160 kts 281°
2026-05-04 23:49 38.28130 -0.55445 815 ft 184 kts 280°
2026-05-04 23:49 38.28348 -0.57119 1434 ft 199 kts 279°
2026-05-04 23:49 38.28566 -0.58885 1991 ft 206 kts 279°
2026-05-04 23:49 38.28781 -0.60710 2571 ft 211 kts 279°
2026-05-04 23:50 38.28988 -0.62568 3196 ft 212 kts 279°
2026-05-04 23:50 38.29195 -0.64451 3570 ft 219 kts 279°
2026-05-04 23:50 38.29437 -0.66335 3565 ft 214 kts 280°
2026-05-04 23:50 38.29671 -0.68204 3567 ft 214 kts 275°
2026-05-04 23:51 38.29447 -0.70065 3564 ft 216 kts 246°
2026-05-04 23:51 38.28510 -0.71548 3807 ft 221 kts 217°
2026-05-04 23:51 38.27066 -0.72255 3964 ft 228 kts 185°
2026-05-04 23:51 38.25516 -0.71859 4004 ft 232 kts 153°
2026-05-04 23:52 38.24299 -0.70530 4007 ft 233 kts 123°
2026-05-04 23:52 38.23707 -0.68630 4008 ft 233 kts 99°
2026-05-04 23:52 38.23402 -0.66596 4009 ft 235 kts 99°
2026-05-04 23:52 38.23097 -0.64559 4009 ft 234 kts 99°
2026-05-04 23:53 38.22791 -0.62526 4010 ft 234 kts 99°
2026-05-04 23:53 38.22485 -0.60496 4009 ft 234 kts 100°
2026-05-04 23:53 38.22179 -0.58464 4009 ft 234 kts 100°
2026-05-04 23:53 38.21869 -0.56433 4008 ft 234 kts 100°
2026-05-04 23:54 38.21557 -0.54404 4008 ft 234 kts 100°
2026-05-04 23:54 38.21238 -0.52373 4008 ft 234 kts 103°
2026-05-04 23:54 38.20688 -0.50434 4008 ft 234 kts 117°
2026-05-04 23:54 38.19854 -0.48666 3886 ft 233 kts 122°
2026-05-04 23:55 38.19020 -0.46933 3570 ft 232 kts 118°
2026-05-04 23:55 38.18568 -0.44991 3306 ft 230 kts 90°
2026-05-04 23:55 38.19763 -0.41540 2987 ft 210 kts 36°
2026-05-04 23:56 38.21017 -0.40718 2870 ft 198 kts 11°
2026-05-04 23:56 38.21912 -0.40575 2804 ft 187 kts 357°
2026-05-04 23:56 38.23137 -0.40890 2677 ft 174 kts 336°
2026-05-04 23:56 38.24129 -0.41641 2579 ft 159 kts 325°
2026-05-04 23:57 38.25013 -0.42397 2519 ft 149 kts 325°
2026-05-04 23:57 38.25860 -0.43120 2506 ft 145 kts 322°
2026-05-04 23:57 38.26459 -0.44122 2545 ft 145 kts 291°
2026-05-04 23:57 38.26623 -0.45412 2108 ft 151 kts 276°
2026-05-04 23:58 38.26801 -0.46729 1691 ft 152 kts 284°
2026-05-04 23:58 38.27043 -0.48018 1323 ft 148 kts 282°
2026-05-04 23:58 38.27214 -0.49314 883 ft 151 kts 279°
2026-05-04 23:58 38.27417 -0.50626 571 ft 146 kts 284°
2026-05-04 23:59 38.27621 -0.51885 393 ft 143 kts 281°
2026-05-04 23:59 38.27824 -0.53122 247 ft 142 kts 283°
2026-05-04 23:59 38.28017 -0.54356 107 ft 142 kts 280°
2026-05-04 23:59 38.28171 -0.55438 93 ft 92 kts 279°
2026-05-05 00:00 38.28230 -0.55897 106 ft 33 kts 279°
2026-05-05 00:00 38.28263 -0.56112 111 ft 41 kts 282°
2026-05-05 00:00 38.28317 -0.56532 116 ft 33 kts 279°
2026-05-05 00:00 38.28393 -0.56791 125 ft 31 kts 301°
2026-05-05 00:01 38.28486 -0.56936 134 ft 11 kts 309°
2026-05-05 00:01 38.28535 -0.56937 134 ft 7 kts 43°
2026-05-05 00:01 38.28539 -0.56852 127 ft 14 kts 98°
2026-05-05 00:01 38.28519 -0.56688 122 ft 19 kts 97°
2026-05-05 00:02 38.28496 -0.56515 115 ft 20 kts 109°
2026-05-05 00:02 38.28471 -0.56332 112 ft 21 kts 96°
2026-05-05 00:02 38.28445 -0.56149 108 ft 21 kts 97°
2026-05-05 00:02 38.28421 -0.55980 107 ft 18 kts 103°
2026-05-05 00:03 38.28392 -0.55803 103 ft 22 kts 100°
2026-05-05 00:03 38.28366 -0.55606 100 ft 23 kts 101°
2026-05-05 00:03 38.28333 -0.55386 93 ft 26 kts 99°
2026-05-05 00:03 38.28343 -0.55238 91 ft 18 kts 59°
2026-05-05 00:04 38.28414 -0.55097 89 ft 19 kts 74°
2026-05-05 00:04 38.28430 -0.55001 91 ft 6 kts 54°
2026-05-05 00:04 38.28460 -0.54983 88 ft 4 kts 12°
2026-05-05 00:04 38.28488 -0.54977 90 ft 6 kts 10°
2026-05-05 00:05 38.28526 -0.54968 89 ft 5 kts 10°
2026-05-05 00:05 38.28557 -0.54961 87 ft 9 kts
2026-05-05 00:05 38.28587 -0.54957 88 ft 1 kts 356°
2026-05-05 00:05 38.28592 -0.54960 89 ft 3 kts 338°
2026-05-05 00:06 38.28603 -0.54996 89 ft 4 kts 283°
2026-05-05 00:06 38.28608 -0.55027 88 ft 3 kts 282°
2026-05-05 00:06 38.28610 -0.55035 88 ft 0 kts 281°